SCP
0 0 0 0 0 0 0 0 0 0 0 0 0 0 0 0 0 0 0 0 0 0 0 0 0 0 0 0 0 0 0 0 0 0 0 0 0 0 0 0 0 0 0
0 0 0 0 0 0 0 0 0 0 0 0 0 0 0 0 0 0 0 0 0 0 0 0 0 0 0 0 0 0 0 0 0 0 0 0 0 0 0 0 0 0 0
0 0 0 0 0 0 0 0 0 0 0 0 0 0 0 0 0 0 0 0 0 0 0 0 0 0 0 0 0 0 0 0 0 0 0 0 0 0 0 0 0 0 0
0 0 0 0 0 0 0 0 0 0 0 -0 -0 0 0 0 0 0 0 0 0 0 0 0 0 0 0 0 0 0 0 0 0 0 0 0 0 0 0 0 0 0 0
0 0 0 0 0 0 0 0 0 0 0 -0 -0 -0 0 0 0 0 0 0 0 0 0 0 0 0 0 0 0 0 0 0 0 0 0 0 0 0 0 0 0 0 0
0 0 0 0 0 0 0 0 0 0 0 -0 -0 -0 0 0 0 0 0 0 0 0 0 0 0 0 0 0 0 0 0 0 0 0 0 0 0 0 0 0 0 0 0
0 0 0 0 0 0 0 0 0 0 0 0 -0 -0 0 0 0 0 0 0 0 0 0 0 0 0 0 0 0 0 0 0 0 0 0 0 0 0 0 0 0 0 0
0 0 0 0 0 0 0 0 0 0 0 0 0 0 0 0 0 0 0 0 0 0 0 0 0 0 0 0 0 0 0 0 0 0 0 0 0 0 0 0 0 0 0
0 0 0 0 0 0 0 0 0 0 0 0 0 0 0 0 0 0 0 0 0 0 0 0 0 0 0 0 0 0 0 0 0 0 0 0 0 0 0 0 0 0 0
0 0 0 0 0 0 0 0 0 0 0 0 0 0 0 0 0 0 0 0 0 0 0 0 0 0 0 0 0 0 0 0 0 0 0 0 0 0 0 0 0 0 0
0 0 0 0 0 0 0 0 0 0 0 0 0 0 0 0 0 0 0 0 0 0 0 0 0 0 0 0 0 0 0 0 0 0 0 0 0 0 0 0 0 0 0
0 0 0 0 0 0 0 0 0 0 0 0 0 0 0 0 0 0 0 0 0 0 0 0 0 0 0 0 0 0 0 0 0 0 0 -0 0 0 0 0 0 0 0
0 0 0 0 0 0 0 0 0 0 0 0 0 0 0 0 0 0 0 0 0 0 0 0 0 0 0 0 0 0 0 0 0 0 0 -0 -0 0 0 0 0 0 0
0 0 0 0 0 0 0 0 0 0 0 0 0 0 0 0 0 0 0 0 0 0 0 0 0 0 0 0 0 0 0 0 0 0 0 -0 -0 0 0 0 0 0 0
0 0 0 0 0 0 0 0 0 0 0 0 0 0 0 0 0 0 0 0 0 0 0 0 0 0 0 0 0 0 0 0 0 0 0 0 0 0 0 0 0 0 0
0 0 0 0 0 0 0 0 0 0 0 0 0 0 0 0 0 0 0 0 0 0 0 0 0 0 0 0 0 0 0 0 0 0 0 0 0 0 0 0 0 0 0
0 0 0 0 0 0 0 0 0 0 0 0 0 0 0 0 0 0 0 0 0 0 0 0 0 0 0 0 0 0 0 0 0 0 0 0 0 0 0 0 0 0 0
0 0 0 0 0 0 0 0 0 0 0 0 0 0 0 0 0 0 0 0 0 0 0 0 0 0 0 0 0 0 0 0 0 0 0 0 0 0 0 0 0 0 0
0 0 0 0 0 0 0 0 0 0 0 0 0 0 0 0 0 0 0 0 0 0 0 0 0 0 0 0 0 0 0 0 0 0 0 0 0 0 0 0 0 0 0
0 0 0 0 0 0 0 0 0 0 0 0 0 0 0 0 0 0 0 0 0 0 0 0 0 0 0 0 0 0 0 0 0 0 0 0 0 0 0 0 0 0 0
0 0 0 0 0 0 0 0 0 0 0 0 0 0 0 0 0 0 0 0 0 0 0 0 0 0 0 0 0 0 0 0 0 0 0 0 0 0 0 0 0 0 0
0 0 0 0 0 0 0 0 0 0 0 0 0 0 0 0 0 0 0 0 0 0 0 0 0 0 0 0 0 0 0 0 0 0 0 0 0 0 0 0 0 0 0
0 0 0 0 0 0 0 0 0 0 0 0 0 0 0 0 0 0 0 0 0 0 0 0 0 0 0 0 0 0 0 0 0 0 0 0 0 0 0 0 0 0 0
0 0 0 0 0 0 0 0 0 0 0 0 0 0 0 0 0 0 0 0 0 0 0 0 0 0 0 0 0 0 0 0 0 0 0 0 0 0 0 0 0 0 0
0 0 0 0 0 0 0 0 0 0 0 0 0 0 0 0 0 0 0 0 0 0 0 0 0 0 0 0 0 0 0 0 0 0 0 0 0 0 0 0 0 0 0
0 0 0 0 0 0 0 0 0 0 0 0 0 0 0 0 0 0 0 0 0 0 0 0 0 0 0 0 0 0 0 0 0 0 0 0 0 0 0 0 0 0 0
Wind_Speed
4 5 13 15 15 14 14 13 11 9 8 7 6 5 5 3 2 2 2 1 1 1 3 2 2 0 3 5 5 4 3 3 4 3 2 3 2 2 3 1 2 1 4
5 7 14 14 14 15 14 13 11 9 8 7 7 6 5 5 4 2 2 2 2 1 2 2 4 3 1 2 4 3 2 2 2 1 2 4 6 2 1 1 3 3 5
4 7 10 13 14 14 13 12 11 9 8 7 6 6 7 6 5 3 1 0 1 1 1 4 6 5 2 2 4 4 3 2 0 3 4 3 5 4 3 1 2 5 6
6 7 7 12 13 14 13 12 11 10 9 7 6 6 7 7 6 4 2 2 2 1 2 5 6 6 1 1 2 2 2 2 1 4 3 3 4 6 5 4 3 4 4
6 7 7 12 13 14 13 12 10 9 9 8 7 6 7 8 7 5 3 3 3 3 3 5 5 5 3 1 2 2 2 2 2 4 2 4 3 7 7 7 6 4 4
7 6 7 12 14 14 13 12 11 10 9 8 8 6 7 8 7 6 4 4 4 5 6 6 7 6 5 4 5 6 5 2 2 2 2 3 3 9 8 7 7 7 7
7 6 6 13 15 14 13 13 12 11 10 9 7 5 5 7 7 6 5 5 6 7 8 8 9 9 9 9 9 10 9 2 2 1 3 3 5 11 10 8 8 8 8
7 6 5 13 13 14 14 14 12 12 11 10 8 6 4 5 7 7 7 7 8 8 9 9 9 10 11 12 12 11 10 4 2 2 3 4 8 13 13 11 10 10 9
5 5 5 5 8 12 13 13 12 12 11 10 9 8 5 4 5 7 8 8 9 10 10 10 10 11 11 12 13 12 10 8 3 3 4 4 10 15 16 13 12 12 12
4 5 5 5 5 5 7 11 11 11 10 9 9 8 7 6 5 6 6 8 9 11 11 12 12 12 12 12 13 12 11 9 4 4 3 5 13 16 18 16 15 15 15
4 4 5 5 5 5 5 6 8 9 9 8 7 8 7 4 4 4 6 7 10 11 12 12 13 13 12 11 12 12 10 3 3 3 3 10 15 18 19 19 18 17 17
6 6 6 6 6 5 5 4 3 3 4 4 3 4 4 3 4 5 6 8 11 11 12 13 14 13 9 4 7 10 4 4 4 4 5 15 18 20 21 21 21 20 19
4 5 7 7 6 6 4 3 3 2 3 3 4 5 4 3 3 2 2 3 4 5 5 7 7 4 4 4 4 4 5 4 3 4 6 17 20 22 23 23 23 23 22
4 6 6 7 7 6 5 4 4 3 3 4 5 5 4 3 3 3 2 3 3 3 4 5 5 6 6 6 6 6 7 5 5 5 7 18 21 22 25 25 25 25 25
6 7 8 8 9 7 6 5 5 5 5 5 4 5 5 4 4 4 4 4 4 4 5 6 6 7 7 7 7 8 9 8 9 8 7 17 21 22 24 26 27 27 27
8 8 7 9 10 9 8 7 6 6 5 4 5 6 6 5 5 4 4 4 5 5 6 6 7 7 7 6 8 9 10 9 9 10 9 12 21 23 24 26 27 29 29
7 7 8 9 9 10 11 10 7 6 5 5 5 6 7 6 5 5 5 5 6 5 6 6 6 6 7 7 10 10 9 10 11 11 11 9 10 18 24 27 28 30 30
6 7 6 7 8 10 10 8 6 5 6 5 4 4 6 6 6 5 5 7 6 4 5 5 5 6 8 7 8 9 9 9 11 12 11 11 9 10 16 26 28 30 31
6 7 6 3 4 6 7 5 4 3 4 3 3 3 4 5 5 5 6 7 5 4 5 6 6 5 8 9 9 9 8 9 11 11 13 13 13 13 12 18 25 28 30
6 7 7 7 5 0 2 1 0 1 1 2 2 3 4 4 5 5 5 7 5 4 5 5 8 7 8 10 10 11 10 10 9 10 12 13 13 15 15 15 14 16 26
9 9 9 11 8 5 3 2 1 1 2 2 2 3 3 4 4 3 4 5 5 5 7 7 7 8 8 6 7 9 9 10 11 11 11 12 13 14 13 15 13 11 11
8 10 12 12 11 8 4 3 3 3 3 3 5 7 7 7 6 5 4 4 5 5 6 7 7 6 7 5 4 6 6 5 8 10 10 10 12 11 12 15 14 14 12
9 10 10 11 12 11 8 5 5 5 4 5 6 6 8 8 9 9 8 6 6 5 5 6 6 7 8 6 5 7 8 7 5 5 8 10 11 10 11 11 14 15 15
7 7 9 10 12 11 9 10 10 8 6 5 3 4 6 8 9 9 8 8 7 6 6 7 7 6 7 7 6 5 8 9 10 8 4 5 8 9 11 10 11 13 14
6 7 8 10 11 10 10 9 9 8 5 4 5 7 8 7 8 10 9 8 7 6 6 7 7 6 4 5 5 7 8 8 7 9 12 7 6 6 7 9 10 10 12
6 7 7 10 10 9 10 10 10 9 8 9 8 8 6 5 5 9 9 8 7 7 7 7 7 7 6 6 6 5 6 6 7 7 12 13 11 7 8 7 8 8 9
Wind_Direction
216 199 198 176 169 167 161 157 156 155 156 161 163 175 163 153 149 125 109 125 118 326 292 274 296 181 127 119 119 118 122 112 79 53 25 338 347 90 93 78 200 199 168
172 175 196 181 175 169 164 161 159 163 169 181 184 184 181 172 177 190 218 223 198 230 292 300 321 312 231 157 145 150 171 145 112 33 331 328 323 260 178 261 201 199 166
152 168 193 186 178 170 166 163 162 169 178 191 201 194 189 176 170 170 148 228 223 196 289 309 322 298 284 251 179 167 192 203 229 324 290 280 294 252 202 222 161 159 141
161 164 184 186 181 173 169 166 169 179 188 199 211 210 197 179 168 176 192 249 274 261 273 290 304 298 274 333 184 173 204 224 336 326 278 250 267 258 214 215 192 150 146
161 161 175 185 184 174 173 171 177 189 197 207 215 228 213 189 173 178 198 239 255 262 264 270 279 306 274 287 269 239 253 245 18 349 270 236 249 261 228 217 211 199 201
164 163 175 185 182 177 178 178 184 193 201 210 220 239 219 198 186 189 201 227 234 246 251 259 255 273 270 254 268 267 262 253 65 349 288 249 248 260 238 221 221 218 219
164 169 182 191 186 184 186 187 192 198 203 211 222 224 216 207 198 194 205 226 233 239 246 252 256 256 259 263 267 270 269 234 150 295 276 258 255 254 239 223 223 222 222
164 170 186 199 194 192 194 195 197 202 207 213 216 210 210 216 208 206 215 231 243 246 250 255 259 264 263 265 268 270 272 262 229 249 268 251 251 252 246 230 229 230 229
167 169 186 204 201 199 199 202 204 207 212 217 219 218 216 223 231 236 234 240 250 255 255 255 258 264 268 270 272 272 271 268 234 235 258 251 250 251 254 244 234 236 235
176 185 191 200 202 202 205 207 210 214 217 222 228 223 209 209 222 243 254 255 258 264 263 261 262 266 272 277 278 278 273 272 253 242 254 262 257 252 258 256 242 239 240
197 195 194 199 203 201 202 213 215 220 224 228 240 227 209 213 225 243 253 255 261 270 273 272 272 274 277 281 285 284 281 266 246 242 249 266 265 256 256 261 254 243 243
200 199 197 202 206 202 207 206 211 216 226 229 225 224 211 212 227 237 256 263 270 278 282 281 280 280 284 288 287 287 280 270 257 247 255 269 269 263 259 259 259 251 245
210 204 202 208 207 202 205 199 205 209 218 226 223 221 217 218 236 256 284 297 293 289 281 280 285 280 273 264 263 261 260 262 253 254 259 270 272 269 263 260 258 255 247
226 221 208 208 209 207 205 207 209 208 213 218 220 217 211 219 227 231 231 238 243 240 245 246 247 249 251 251 250 252 251 250 247 247 252 264 266 266 264 262 260 259 256
241 234 218 207 209 207 206 213 214 216 218 220 220 218 211 215 224 224 228 229 233 232 235 242 245 248 251 254 251 248 248 245 248 247 255 258 260 262 264 262 260 260 260
247 240 224 212 210 206 209 214 218 217 218 218 221 224 218 221 227 231 240 241 241 237 240 243 246 251 256 255 258 251 251 249 249 246 243 252 255 257 259 261 259 259 260
284 267 238 222 208 208 213 215 218 214 211 220 225 224 223 223 228 235 247 249 246 238 240 247 251 252 259 256 259 256 254 251 249 248 246 245 249 253 255 257 258 257 258
328 311 274 243 209 208 213 213 216 208 212 226 227 226 227 229 228 234 248 258 254 240 238 246 250 252 258 259 262 261 256 257 254 252 251 250 246 246 250 252 254 255 255
347 345 344 309 239 216 212 212 215 210 221 237 245 250 250 247 241 240 255 266 267 254 249 255 259 245 265 269 267 268 260 255 256 255 252 250 247 246 245 250 250 250 252
10 14 19 22 10 307 168 168 208 287 292 296 285 274 268 259 251 244 259 272 278 274 271 260 265 263 265 274 280 279 273 262 257 255 254 252 249 247 245 245 247 248 248
22 25 28 33 25 41 67 77 72 1 344 340 329 311 302 292 283 266 274 284 285 277 280 279 276 278 277 274 278 280 271 258 254 253 250 251 252 250 247 247 248 246 248
28 28 36 37 34 36 52 67 79 78 50 39 31 31 25 24 19 15 354 334 325 313 309 305 296 288 284 265 257 280 283 266 245 245 245 246 248 247 245 244 244 244 244
34 31 41 41 41 39 41 54 52 49 42 30 25 28 28 37 37 32 25 16 5 360 343 332 325 312 307 297 252 264 286 285 279 251 244 246 246 246 245 243 241 241 240
38 38 48 49 48 42 46 60 64 64 57 29 20 23 23 28 29 22 16 10 3 359 352 346 348 336 329 325 318 281 284 298 301 299 259 258 261 258 255 254 251 247 244
49 52 54 57 52 46 51 58 67 64 55 36 28 27 22 16 20 16 9 4 357 350 342 338 337 334 327 319 318 315 313 311 302 305 302 298 283 267 266 261 259 255 250
59 59 60 66 55 47 54 54 58 56 44 37 27 20 12 5 5 10 2 358 350 346 339 333 326 321 313 307 306 304 305 303 309 304 301 303 297 290 284 279 272 266 258